EW7558 Weather Reports


time (UTC)temp
F
wind
direction
speed
knots
gust
knots
rain 1hr
in
rain 24hr
in
rain mn
in
humidity
%
barometer
mb
20260507074510 50 236 0.0 0.9 0.00 0.60 0.26 90 1013.4
20260507073008 50 230 0.0 1.7 0.00 0.60 0.26 90 1013.4
20260507071521 50 237 0.9 3.5 0.00 0.60 0.26 91 1013.5
20260507070010 50 257 0.9 2.6 0.01 0.60 0.26 91 1013.6
20260507064505 50 243 0.0 1.7 0.02 0.60 0.26 91 1013.5
20260507063006 50 242 0.0 0.0 0.02 0.60 0.26 91 1013.6
20260507061506 50 242 0.0 0.0 0.04 0.60 0.26 91 1013.6
20260507060003 50 243 0.0 0.0 0.04 0.59 0.25 90 1013.6
20260507054503 50 242 0.0 0.0 0.15 0.57 0.24 89 1013.4
20260507053129 50 243 0.0 0.0 0.23 0.57 0.24 89 1013.1
20260507051605 51 242 0.0 0.0 0.21 0.56 0.22 88 1013.5
20260507050056 51 243 0.0 2.6 0.21 0.55 0.21 87 1013.6
20260507044556 53 245 1.7 5.2 0.15 0.44 0.10 86 1013.7
20260507043052 53 252 0.0 2.6 0.07 0.35 0.01 85 1013.4
20260507041548 54 169 1.7 5.2 0.07 0.35 0.01 84 1013.2
20260507040045 54 266 1.7 4.3 0.06 0.34 0.34 82 1013.0
20260507034540 56 232 0.0 3.5 0.01 0.28 0.28 80 1012.8
20260507033044 56 247 0.9 6.1 0.00 0.28 0.28 80 1013.0
20260507031535 56 188 2.6 6.1 0.00 0.28 0.28 80 1012.6
20260507030033 57 210 3.5 6.1 0.00 0.28 0.28 79 1012.6
20260507024533 57 247 0.9 5.2 0.00 0.28 0.28 79 1012.7
20260507023034 57 241 1.7 5.2 0.00 0.28 0.28 79 1012.5
20260507021527 58 242 2.6 7.0 0.00 0.28 0.28 80 1012.4
20260507020025 58 221 1.7 5.2 0.00 0.28 0.28 80 1012.3
20260507014523 59 254 2.6 6.1 0.00 0.28 0.28 81 1012.5
20260507013021 59 252 1.7 4.3 0.00 0.28 0.28 82 1012.5
20260507011520 60 201 0.9 4.3 0.00 0.28 0.28 81 1012.7
20260507010023 60 230 0.9 4.3 0.00 0.28 0.28 80 1012.3
20260507004514 60 267 0.9 6.1 0.00 0.28 0.28 81 1012.1
20260507003013 61 240 2.6 7.8 0.00 0.28 0.28 81 1011.8
20260507001511 62 270 3.5 7.0 0.00 0.28 0.28 86 1011.8
20260507000015 63 254 1.7 4.3 0.00 0.28 0.28 90 1011.0
20260506234510 63 244 0.9 2.6 0.01 0.28 0.28 90 1010.6
20260506233010 63 264 0.9 2.6 0.01 0.28 0.28 90 1010.3
20260506231508 64 272 0.9 3.5 0.01 0.28 0.28 89 1010.4
20260506230008 64 262 0.9 3.5 0.01 0.28 0.28 87 1010.2
20260506224509 65 274 2.6 6.1 0.00 0.27 0.27 86 1010.2
20260506223006 65 308 0.9 6.1 0.00 0.27 0.27 84 1010.0
20260506221509 66 276 1.7 5.2 0.00 0.27 0.27 84 1009.9
20260506220018 66 37 0.9 6.1 0.00 0.27 0.27 83 1009.8
20260506214506 66 258 0.9 4.3 0.00 0.27 0.27 84 1009.4
20260506213004 66 265 1.7 4.3 0.00 0.27 0.27 84 1009.3
20260506211502 66 253 0.9 3.5 0.00 0.27 0.27 84 1009.3
20260506210007 66 305 1.7 6.1 0.00 0.27 0.27 84 1009.1
20260506204501 66 287 0.9 6.1 0.00 0.27 0.27 85 1009.1
20260506203000 65 282 1.7 5.2 0.00 0.27 0.27 85 1009.1
20260506201559 65 259 2.6 6.1 0.00 0.27 0.27 86 1009.2
20260506200106 64 288 1.7 5.2 0.00 0.27 0.27 86 1009.3
20260506194605 64 252 0.9 5.2 0.00 0.27 0.27 86 1009.4
20260506193059 64 264 1.7 7.8 0.00 0.27 0.27 86 1009.4
20260506191606 65 252 0.9 7.8 0.00 0.27 0.27 85 1009.5
20260506190055 65 294 0.9 5.2 0.00 0.27 0.27 86 1009.5
20260506184553 64 250 2.6 7.0 0.00 0.27 0.27 86 1009.7
20260506183057 63 235 3.5 7.0 0.00 0.27 0.27 86 1009.7
20260506181559 63 280 2.6 9.6 0.00 0.27 0.27 87 1009.8
20260506180111 62 292 2.6 7.8 0.00 0.27 0.27 88 1009.9
20260506174551 62 273 2.6 7.0 0.00 0.27 0.27 89 1010.0
20260506173116 61 241 0.9 5.2 0.00 0.27 0.27 89 1010.0
20260506171549 61 59 2.6 10.4 0.00 0.27 0.27 89 1010.0
20260506170048 61 277 2.6 8.7 0.00 0.27 0.27 90 1010.0
20260506164548 61 309 2.6 7.0 0.00 0.27 0.27 90 1010.0
20260506163053 61 264 1.7 5.2 0.00 0.27 0.27 91 1009.9
20260506161554 60 287 0.9 5.2 0.01 0.27 0.27 91 1010.0
20260506160048 60 257 0.9 5.2 0.02 0.27 0.27 91 1010.1
20260506154547 61 285 0.9 7.0 0.08 0.27 0.27 91 1010.0
20260506153044 60 287 0.0 5.2 0.11 0.27 0.27 91 1009.8
20260506151546 60 80 0.0 2.6 0.12 0.26 0.26 91 1009.6
20260506150044 60 75 0.9 5.2 0.12 0.25 0.25 91 1010.4
20260506144558 60 266 0.9 4.3 0.08 0.19 0.19 91 1010.8
20260506143040 60 261 0.0 6.1 0.08 0.16 0.16 90 1010.8
20260506141539 60 232 1.7 8.7 0.09 0.14 0.14 90 1010.6
20260506140038 60 297 0.9 4.3 0.09 0.13 0.13 90 1010.4
20260506134537 60 141 0.0 6.1 0.08 0.11 0.11 89 1010.1
20260506133041 60 277 0.0 4.3 0.07 0.08 0.08 88 1010.4
20260506131532 61 292 0.0 5.2 0.05 0.05 0.05 86 1010.4
20260506130030 61 272 0.9 6.1 0.04 0.04 0.04 85 1010.4
20260506124528 62 278 0.9 6.1 0.03 0.03 0.03 84 1010.4
20260506123026 62 285 2.6 7.8 0.01 0.01 0.01 81 1010.6
20260506121527 63 259 1.7 6.1 0.00 0.00 0.00 80 1010.8
20260506120027 63 259 2.6 6.1 0.00 0.00 0.00 78 1010.9
20260506114517 64 267 3.5 7.8 0.00 0.00 0.00 75 1010.7
20260506113015 65 283 0.9 5.2 0.00 0.00 0.00 71 1010.3
20260506111512 65 251 0.9 6.1 0.00 0.00 0.00 70 1010.1
20260506110114 65 290 1.7 6.1 0.00 0.00 0.00 70 1010.1
20260506104508 66 247 1.7 8.7 0.00 0.00 0.00 67 1009.8
20260506103007 66 288 2.6 7.0 0.00 0.00 0.00 66 1009.7
20260506101505 66 254 0.9 7.0 0.00 0.00 0.00 66 1009.7
20260506100004 66 276 0.9 6.1 0.00 0.00 0.00 65 1009.6
20260506094502 66 241 0.9 5.2 0.00 0.00 0.00 64 1009.6
20260506093001 66 245 0.9 7.0 0.00 0.00 0.00 64 1009.4
20260506091602 66 278 1.7 6.1 0.00 0.00 0.00 63 1009.6
20260506090101 66 268 1.7 6.1 0.00 0.00 0.00 62 1009.9
20260506084559 67 286 1.7 7.8 0.00 0.00 0.00 61 1009.9
20260506083100 67 238 0.9 5.2 0.00 0.00 0.00 61 1009.8
20260506081553 67 295 0.9 6.1 0.00 0.00 0.00 60 1009.9
20260506080105 68 273 0.9 7.0 0.00 0.00 0.00 59 1009.8